Simultaneous Nadir Overpasses (SNOs) Predictions

Prediction of SNOs between LANDSAT-8 and NOAA-19 Satellite Orbit:

Table of predicted SNOs for the next 14.0 days since TLE Epoch: 11/7/2020
Index Date (LANDSAT-8) Time (LANDSAT-8) Lat,Lon (LANDSAT-8) SZA (LANDSAT-8 ) Date (NOAA-19) Time (NOAA-19) Lat,Lon (NOAA-19) SZA (NOAA-19 ) Distance(km) Time Diff (sec)
1 11/08/2020 13:18:25 80.04, 8.36 98.24 11/08/2020 13:17:35 80.06, 8.27 98.24 3.42 50
2 11/08/2020 14:07:52 -80.03, 175.97 81.76 11/08/2020 14:08:38 -80.03, 175.93 81.74 0.75 46
3 11/10/2020 18:52:10 -80.00, 104.59 81.21 11/10/2020 18:50:56 -80.11, 104.31 81.15 14.09 74
4 11/10/2020 19:41:35 80.03, -87.45 98.87 11/10/2020 19:41:49 80.05, -87.55 98.88 2.75 14
5 11/13/2020 01:15:18 -80.06, 9.36 80.50 11/13/2020 01:15:08 -80.05, 9.22 80.52 3.04 10
6 11/13/2020 02:04:51 79.82, 175.01 99.13 11/13/2020 02:05:53 79.80, 179.72 99.57 92.58 62
7 11/15/2020 06:49:01 80.05, 105.87 100.06 11/15/2020 06:48:18 80.06, 105.83 100.05 1.29 43
8 11/15/2020 07:38:28 -80.06, -86.47 79.93 11/15/2020 07:39:22 -80.03, -86.53 79.93 2.78 54
9 11/17/2020 12:22:44 -80.08,-157.33 79.36 11/17/2020 12:21:37 -80.05,-157.27 79.40 3.26 67
10 11/17/2020 13:12:11 80.05, 10.00 100.59 11/17/2020 13:12:32 80.05, 10.00 100.61 1.03 21
